{"data":{"norad_id":66729,"epoch":"2026-09-19T10:35:29.838048Z","epoch_age_seconds":109707,"freshness":"FRESH","line1":"1 66729U 25276BR  26262.44131757  .00004304  00000+0  19940-3 0  9998","line2":"2 66729  97.4113 334.2821 0005800  54.3727 305.8047 15.20609285 44734","mean_motion":15.20609285,"eccentricity":0.00058,"inclination_deg":97.4113,"raan_deg":334.2821,"arg_perigee_deg":54.3727,"mean_anomaly_deg":305.8047,"bstar":0.0001994,"rev_number":4473,"period_min":94.698882494329,"perigee_km":500.00998047212,"apogee_km":507.99326127233,"semimajor_km":6882.1386208722,"source":"CELESTRAK","updated_at":"2026-09-20T09:00:34.752538Z"}}